sat.trackr.live / text

‹ back to catalog

STARLINK-33583

NORAD 63503 · 2025-071L

PAYLOAD ACTIVE UNKNOWN

§ Identity

Operator
Country
US
Launch date
2025-04-07
Launch site
AFWTR
Launch vehicle
Mass (kg)
RCS (m²)

Purposes: comms

External: N2YO · Heavens-Above · Gunter

§ Orbital elements

Epoch: 2026-05-25T00:19:37.356384Z

Period
93.37 min
Inclination
53.1587°
Eccentricity
0.0001562
Mean motion
15.42185205 rev/d
Perigee alt
438.6 km
Apogee alt
440.7 km
Semi-major
6,817.8 km
B*
1.1937e-3
RAAN
145.5282°
Arg perigee
97.4609°
Mean anomaly
262.6574°
Rev number
6,446

§ Raw data

STARLINK-335831 63503U 25071L   26145.01362681  .00051932  00000+0  11937-2 0  99992 63503  53.1587 145.5282 0001562  97.4609 262.6574 15.42185205 64469

JSON: /api/v1/satellites/63503 · /tle

For live sub-satellite position, see the globe view (requires WebGL).

§ Visibility from observer

Set your observer location to see the next 7 days of passes ≥ 10°. The values pass through the URL so the page stays shareable.

No JS? Fill the form by hand. The geolocation button needs JavaScript.